Location: Taupo
(38.6830°S, 176.0830°E)
Time: 22:46:35
(UTC+13:00)

Envisat - Pass Details

Date: 24 January 2019
Orbit: 764 x 766 km, 98.2° (Epoch: 17 February)

Event Time Altitude Azimuth Distance (km) Brightness Sun altitude
Rises 21:27:12 0° 176° (S) 3,270 6.7 -9.3°
Reaches altitude 10° 21:29:38 10° 182° (S) 2,336 6.0 -9.7°
Maximum altitude 21:34:26 41° 251° (WSW) 1,111 4.5 -10.4°
Drops below altitude 10° 21:39:12 10° 320° (NW) 2,309 5.5 -11.2°
Sets 21:41:36 0° 327° (NNW) 3,227 6.2 -11.6°
